Goodland, KS

2:13 AM MST on January 18, 2017 (GMT -0700)
Renner-Goodland Municipal

Weather History for KGLD - January, 2013

Change the Weather History Date:

Thursday, January 24, 2013

  Actual Average Record
Temperature  
Mean Temperature 31 °F 30 °F  
Max Temperature 46 °F 42 °F 71 °F (1970)
Min Temperature 15 °F 17 °F -10 °F (1897)
Degree Days  
Heating Degree Days 34 35  
Month to date heating degree days 861 842  
Since 1 July heating degree days 3129 3249  
Cooling Degree Days 0 0  
Month to date cooling degree days 0 0  
Year to date cooling degree days 0 0  
Moisture  
Dew Point 17 °F    
Average Humidity 66    
Maximum Humidity 92    
Minimum Humidity 39    
Precipitation  
Precipitation 0.00 in 0.01 in 1.12 in (1921)
Month to date precipitation 0.02 0.28  
Year to date precipitation 0.02 0.28  
Snow  
Snow 0.00 in 0.20 in - ()
Month to date snowfall 0.4 4.4  
Since 1 July snowfall 10.4 17.1  
Snow Depth 0.00 in    
Sea Level Pressure  
Sea Level Pressure 30.19 in    
Wind  
Wind Speed 11 mph (South)    
Max Wind Speed 23 mph    
Max Gust Speed 28 mph    
Visibility 10 miles    
Events      
T = Trace of Precipitation, MM = Missing Value Source: NWS Daily Summary

Daily Weather History Graph

Daily Weather History Graph

Search for Another Location

Airport or City:

Trip Planner

Search our weather history database for the weather conditions in past years. The results will help you decide how hot, cold, wet, or windy it might be!

Date:

Astronomy

Jan. 24, 2013 Rise Set
Actual Time 7:00 AM MST 4:58 PM MST
Civil Twilight 6:31 AM MST 5:27 PM MST
Nautical Twilight 5:58 AM MST 5:59 PM MST
Astronomical Twilight 5:26 AM MST 6:31 PM MST
Moon 3:02 PM MST (1/24) 4:58 AM MST (1/24)
Length of Visible Light 10h 55m
Length of Day
9h 58m
Waxing Gibbous, 95% of the Moon is Illuminated
Jan 24
Waxing Gibbous
Jan 26
Full
Feb 3
Last Quarter
Feb 10
New
Feb 17
First Quarter

Hourly Weather History & Observations

Time (MST) Temp. Windchill Dew Point Humidity Pressure Visibility Wind Dir Wind Speed Gust Speed Precip Events Conditions
12:11 AM 19.4 °F 10.4 °F 17.6 °F 93% 30.24 in 10.0 mi SE 6.9 mph - N/A   Scattered Clouds
12:22 AM 19.4 °F 9.5 °F 17.6 °F 93% 30.25 in 10.0 mi SE 8.1 mph - N/A   Mostly Cloudy
12:53 AM 19.0 °F 11.1 °F 17.1 °F 92% 30.28 in 10.0 mi SSE 5.8 mph - N/A   Scattered Clouds
1:53 AM 18.0 °F 12.7 °F 15.1 °F 88% 30.30 in 10.0 mi ESE 3.5 mph - N/A   Mostly Cloudy
2:53 AM 19.0 °F 8.2 °F 16.0 °F 88% 30.28 in 10.0 mi SSE 9.2 mph - N/A   Overcast
3:40 AM 17.6 °F 5.7 °F 15.8 °F 93% 30.21 in 10.0 mi SSE 10.4 mph - N/A   Scattered Clouds
3:53 AM 17.1 °F 5.8 °F 14.0 °F 88% 30.26 in 10.0 mi SSE 9.2 mph - N/A   Mostly Cloudy
4:53 AM 17.1 °F 5.8 °F 12.9 °F 84% 30.29 in 10.0 mi SSE 9.2 mph - N/A   Overcast
5:53 AM 16.0 °F 3.6 °F 12.0 °F 84% 30.30 in 10.0 mi South 10.4 mph - N/A   Overcast
6:53 AM 15.1 °F 1.1 °F 12.0 °F 88% 30.31 in 10.0 mi SSE 12.7 mph - N/A   Overcast
7:53 AM 16.0 °F 0.6 °F 14.0 °F 92% 30.28 in 9.0 mi South 16.1 mph - N/A   Overcast
8:53 AM 18.0 °F 2.2 °F 15.1 °F 88% 30.28 in 9.0 mi South 18.4 mph - N/A   Overcast
9:53 AM 19.9 °F 4.3 °F 15.1 °F 81% 30.29 in 10.0 mi South 19.6 mph 25.3 mph N/A   Overcast
10:45 AM 24.8 °F 11.1 °F 17.6 °F 74% 30.13 in 10.0 mi South 18.4 mph 24.2 mph N/A   Scattered Clouds
10:53 AM 26.1 °F 13.6 °F 18.0 °F 71% 30.23 in 10.0 mi South 16.1 mph - N/A   Partly Cloudy
11:53 AM 30.0 °F 17.9 °F 19.0 °F 64% 30.15 in 10.0 mi South 18.4 mph - N/A   Clear
12:53 PM 34.0 °F 23.8 °F 19.9 °F 56% 30.12 in 10.0 mi SSW 16.1 mph - N/A   Clear
1:53 PM 39.0 °F 30.6 °F 21.0 °F 49% 30.06 in 10.0 mi SW 15.0 mph - N/A   Clear
2:53 PM 44.1 °F 38.1 °F 21.0 °F 40% 30.02 in 10.0 mi SSW 11.5 mph - N/A   Clear
3:53 PM 43.0 °F 37.7 °F 19.9 °F 40% 30.03 in 10.0 mi SSW 9.2 mph - N/A   Clear
4:53 PM 37.0 °F 32.4 °F 19.0 °F 48% 30.07 in 10.0 mi South 5.8 mph - N/A   Clear
5:53 PM 35.1 °F 28.6 °F 19.0 °F 52% 30.07 in 10.0 mi South 8.1 mph - N/A   Clear
6:53 PM 36.0 °F 31.1 °F 19.9 °F 52% 30.09 in 10.0 mi SW 5.8 mph - N/A   Clear
7:53 PM 35.1 °F 27.9 °F 19.0 °F 52% 30.10 in 10.0 mi WSW 9.2 mph - N/A   Clear
8:53 PM 30.0 °F 25.2 °F 18.0 °F 61% 30.14 in 10.0 mi NW 4.6 mph - N/A   Clear
9:53 PM 32.0 °F 24.2 °F 16.0 °F 52% 30.15 in 10.0 mi WNW 9.2 mph - N/A   Clear
10:53 PM 33.1 °F 26.9 °F 18.0 °F 54% 30.16 in 10.0 mi NNW 6.9 mph - N/A   Clear
11:53 PM 34.0 °F 26.0 °F 21.9 °F 61% 30.17 in 10.0 mi North 10.4 mph - N/A   Clear